Time,TemperatureF,DewpointF,PressureIn,WindDirection,WindDirectionDegrees,WindSpeedMPH,WindSpeedGustMPH,Humidity,HourlyPrecipIn,Conditions,Clouds,dailyrainin,SoftwareType,DateUTC
2013-03-16 00:00:00,44.3,40.7,29.77,NW,304,0.0,0.0,87,0.00,,,0.00,Wunderground v.1.15,2013-03-16 04:00:00,
2013-03-16 00:05:00,44.3,40.4,29.76,NW,304,0.0,0.0,86,0.00,,,0.00,Wunderground v.1.15,2013-03-16 04:05:00,
2013-03-16 00:15:00,44.4,40.2,29.77,NW,325,0.0,0.0,85,0.00,,,0.00,Wunderground v.1.15,2013-03-16 04:15:00,
2013-03-16 00:20:00,44.7,40.5,29.77,WNW,300,0.0,1.0,85,0.00,,,0.00,Wunderground v.1.15,2013-03-16 04:20:00,
2013-03-16 00:25:00,44.8,40.9,29.77,WNW,300,0.0,1.0,86,0.00,,,0.00,Wunderground v.1.15,2013-03-16 04:25:00,
2013-03-16 00:35:00,44.8,40.9,29.77,ESE,123,0.0,1.0,86,0.00,,,0.00,Wunderground v.1.15,2013-03-16 04:35:00,
2013-03-16 00:40:00,44.9,41.6,29.77,WNW,285,0.0,2.0,88,0.00,,,0.00,Wunderground v.1.15,2013-03-16 04:40:00,
2013-03-16 00:45:00,45.3,42.0,29.76,ENE,76,1.0,2.0,88,0.00,,,0.00,Wunderground v.1.15,2013-03-16 04:45:00,
2013-03-16 00:55:00,45.1,42.1,29.77,WNW,293,0.0,0.0,89,0.00,,,0.00,Wunderground v.1.15,2013-03-16 04:55:00,
2013-03-16 01:05:00,44.7,41.9,29.74,WNW,284,0.0,0.0,90,0.00,,,0.00,Wunderground v.1.15,2013-03-16 05:05:00,
2013-03-16 01:10:00,44.5,41.7,29.73,SSW,205,0.0,0.0,90,0.00,,,0.00,Wunderground v.1.15,2013-03-16 05:10:00,
2013-03-16 01:20:00,44.5,42.0,29.74,WSW,245,0.0,0.0,91,0.00,,,0.00,Wunderground v.1.15,2013-03-16 05:20:00,
2013-03-16 01:30:00,44.8,42.3,29.74,WSW,244,0.0,0.0,91,0.19,,,0.02,Wunderground v.1.15,2013-03-16 05:30:00,
2013-03-16 01:45:00,45.1,43.2,29.72,South,174,1.0,2.0,93,0.26,,,0.13,Wunderground v.1.15,2013-03-16 05:45:00,
2013-03-16 01:55:00,45.1,42.9,29.72,WNW,290,1.0,7.0,92,0.05,,,0.13,Wunderground v.1.15,2013-03-16 05:55:00,
2013-03-16 02:00:00,45.6,43.4,29.76,SE,135,4.0,4.0,92,0.00,,,0.13,Wunderground v.1.15,2013-03-16 06:00:00,
2013-03-16 02:10:00,46.1,43.3,29.71,East,90,2.0,2.0,90,0.00,,,0.13,Wunderground v.1.15,2013-03-16 06:10:00,
2013-03-16 02:15:00,45.9,43.4,29.71,WSW,246,0.0,2.0,91,0.00,,,0.13,Wunderground v.1.15,2013-03-16 06:15:00,
2013-03-16 02:20:00,45.6,43.7,29.76,East,96,2.0,9.0,93,0.00,,,0.13,Wunderground v.1.15,2013-03-16 06:20:00,
2013-03-16 02:30:00,46.4,43.6,29.73,SE,142,3.0,3.0,90,0.00,,,0.13,Wunderground v.1.15,2013-03-16 06:30:00,
2013-03-16 02:40:00,46.2,44.0,29.75,NE,37,2.0,2.0,92,0.00,,,0.13,Wunderground v.1.15,2013-03-16 06:40:00,
2013-03-16 02:45:00,46.3,43.8,29.72,South,174,2.0,2.0,91,0.00,,,0.13,Wunderground v.1.15,2013-03-16 06:45:00,
2013-03-16 02:55:00,45.8,43.3,29.70,NW,319,1.0,2.0,91,0.00,,,0.13,Wunderground v.1.15,2013-03-16 06:55:00,
2013-03-16 03:05:00,45.3,43.4,29.70,West,271,0.0,1.0,93,0.00,,,0.13,Wunderground v.1.15,2013-03-16 07:05:00,
2013-03-16 03:10:00,44.9,43.0,29.70,NW,315,1.0,3.0,93,0.00,,,0.13,Wunderground v.1.15,2013-03-16 07:10:00,
2013-03-16 03:20:00,44.1,42.2,29.70,NNW,329,1.0,1.0,93,0.00,,,0.13,Wunderground v.1.15,2013-03-16 07:20:00,
2013-03-16 03:30:00,43.7,42.4,29.69,West,269,0.0,0.0,95,0.00,,,0.13,Wunderground v.1.15,2013-03-16 07:30:00,
2013-03-16 03:40:00,43.1,41.8,29.68,West,269,0.0,0.0,95,0.00,,,0.13,Wunderground v.1.15,2013-03-16 07:40:00,
2013-03-16 03:50:00,42.3,40.7,29.68,West,269,0.0,0.0,94,0.00,,,0.13,Wunderground v.1.15,2013-03-16 07:50:00,
2013-03-16 04:00:00,41.8,40.5,29.67,West,269,0.0,0.0,95,0.00,,,0.13,Wunderground v.1.15,2013-03-16 08:00:00,
2013-03-16 04:10:00,41.3,40.0,29.67,West,269,0.0,0.0,95,0.00,,,0.13,Wunderground v.1.15,2013-03-16 08:10:00,
2013-03-16 04:20:00,40.6,39.3,29.66,West,268,0.0,0.0,95,0.00,,,0.13,Wunderground v.1.15,2013-03-16 08:20:00,
2013-03-16 04:30:00,40.4,39.4,29.66,West,268,0.0,0.0,96,0.00,,,0.13,Wunderground v.1.15,2013-03-16 08:30:00,
2013-03-16 04:40:00,40.0,39.0,29.66,West,269,0.0,0.0,96,0.00,,,0.13,Wunderground v.1.15,2013-03-16 08:40:00,
2013-03-16 04:50:00,39.6,38.6,29.66,West,268,0.0,0.0,96,0.00,,,0.13,Wunderground v.1.15,2013-03-16 08:50:00,
2013-03-16 05:00:00,39.4,38.4,29.65,ENE,72,0.0,0.0,96,0.00,,,0.13,Wunderground v.1.15,2013-03-16 09:00:00,
2013-03-16 05:05:00,39.3,38.3,29.65,ENE,72,0.0,0.0,96,0.00,,,0.13,Wunderground v.1.15,2013-03-16 09:05:00,
2013-03-16 05:15:00,39.4,38.6,29.65,ENE,72,0.0,1.0,97,0.00,,,0.13,Wunderground v.1.15,2013-03-16 09:15:00,
2013-03-16 05:20:00,39.3,38.5,29.65,ENE,72,0.0,0.0,97,0.00,,,0.13,Wunderground v.1.15,2013-03-16 09:20:00,
2013-03-16 05:30:00,39.3,38.5,29.65,ENE,72,0.0,0.0,97,0.00,,,0.13,Wunderground v.1.15,2013-03-16 09:30:00,
2013-03-16 05:40:00,39.1,38.3,29.64,ENE,72,0.0,0.0,97,0.00,,,0.13,Wunderground v.1.15,2013-03-16 09:40:00,
2013-03-16 05:45:00,39.0,38.2,29.64,ENE,72,0.0,0.0,97,0.00,,,0.13,Wunderground v.1.15,2013-03-16 09:45:00,
2013-03-16 05:55:00,38.9,38.1,29.64,ENE,72,0.0,0.0,97,0.00,,,0.13,Wunderground v.1.15,2013-03-16 09:55:00,
2013-03-16 06:05:00,39.0,38.2,29.64,ENE,72,0.0,0.0,97,0.00,,,0.13,Wunderground v.1.15,2013-03-16 10:05:00,
2013-03-16 06:15:00,39.1,38.3,29.64,ENE,72,0.0,0.0,97,0.00,,,0.13,Wunderground v.1.15,2013-03-16 10:15:00,
2013-03-16 06:25:00,39.2,38.4,29.64,ENE,72,0.0,1.0,97,0.00,,,0.13,Wunderground v.1.15,2013-03-16 10:25:00,
2013-03-16 06:35:00,39.3,38.5,29.64,ENE,71,0.0,0.0,97,0.00,,,0.13,Wunderground v.1.15,2013-03-16 10:35:00,
2013-03-16 06:45:00,39.3,38.5,29.64,ENE,65,0.0,0.0,97,0.00,,,0.13,Wunderground v.1.15,2013-03-16 10:45:00,
2013-03-16 06:50:00,39.2,38.4,29.64,ENE,65,0.0,0.0,97,0.00,,,0.13,Wunderground v.1.15,2013-03-16 10:50:00,
2013-03-16 07:00:00,39.4,38.9,29.63,ENE,77,0.0,0.0,98,0.00,,,0.13,Wunderground v.1.15,2013-03-16 11:00:00,
2013-03-16 07:10:00,39.6,39.1,29.63,NNE,29,0.0,0.0,98,0.00,,,0.13,Wunderground v.1.15,2013-03-16 11:10:00,
2013-03-16 07:20:00,39.9,39.4,29.63,ENE,73,0.0,0.0,98,0.00,,,0.13,Wunderground v.1.15,2013-03-16 11:20:00,
2013-03-16 07:25:00,40.0,39.5,29.63,ENE,74,0.0,0.0,98,0.00,,,0.13,Wunderground v.1.15,2013-03-16 11:25:00,
2013-03-16 07:35:00,40.6,40.1,29.66,WNW,299,0.0,1.0,98,0.00,,,0.13,Wunderground v.1.15,2013-03-16 11:35:00,
2013-03-16 07:45:00,41.2,40.7,29.65,NE,37,0.0,1.0,98,0.00,,,0.13,Wunderground v.1.15,2013-03-16 11:45:00,
2013-03-16 07:55:00,41.3,40.8,29.66,WNW,301,0.0,1.0,98,0.00,,,0.14,Wunderground v.1.15,2013-03-16 11:55:00,
2013-03-16 08:00:00,41.9,41.4,29.66,NNE,31,1.0,1.0,98,0.05,,,0.15,Wunderground v.1.15,2013-03-16 12:00:00,
2013-03-16 08:10:00,41.9,41.4,29.63,NNE,31,0.0,0.0,98,0.05,,,0.15,Wunderground v.1.15,2013-03-16 12:10:00,
2013-03-16 08:20:00,42.4,41.9,29.65,ESE,115,0.0,0.0,98,0.00,,,0.15,Wunderground v.1.15,2013-03-16 12:20:00,
2013-03-16 08:30:00,42.5,42.0,29.64,ESE,115,0.0,0.0,98,0.00,,,0.15,Wunderground v.1.15,2013-03-16 12:30:00,
2013-03-16 08:35:00,42.5,42.0,29.64,ESE,114,0.0,0.0,98,0.00,,,0.15,Wunderground v.1.15,2013-03-16 12:35:00,
2013-03-16 08:45:00,42.9,42.4,29.64,ESE,114,0.0,1.0,98,0.00,,,0.15,Wunderground v.1.15,2013-03-16 12:45:00,
2013-03-16 08:50:00,43.0,42.5,29.63,ESE,114,0.0,0.0,98,0.00,,,0.15,Wunderground v.1.15,2013-03-16 12:50:00,
2013-03-16 09:00:00,43.2,42.7,29.62,ESE,114,0.0,0.0,98,0.00,,,0.16,Wunderground v.1.15,2013-03-16 13:00:00,
2013-03-16 09:05:00,43.4,42.9,29.63,ESE,114,0.0,0.0,98,0.00,,,0.16,Wunderground v.1.15,2013-03-16 13:05:00,
2013-03-16 09:15:00,44.3,44.0,29.63,East,85,0.0,0.0,99,0.00,,,0.16,Wunderground v.1.15,2013-03-16 13:15:00,
2013-03-16 09:25:00,44.8,44.5,29.63,East,86,0.0,0.0,99,0.00,,,0.16,Wunderground v.1.15,2013-03-16 13:25:00,
2013-03-16 09:30:00,45.7,45.4,29.63,ENE,64,0.0,0.0,99,0.00,,,0.16,Wunderground v.1.15,2013-03-16 13:30:00,
2013-03-16 09:35:00,45.6,45.3,29.63,ENE,62,0.0,0.0,99,0.00,,,0.16,Wunderground v.1.15,2013-03-16 13:35:00,
2013-03-16 09:45:00,46.3,46.0,29.63,ENE,59,0.0,1.0,99,0.00,,,0.16,Wunderground v.1.15,2013-03-16 13:45:00,
2013-03-16 09:55:00,47.0,46.7,29.62,NE,41,1.0,3.0,99,0.00,,,0.16,Wunderground v.1.15,2013-03-16 13:55:00,
2013-03-16 10:05:00,47.6,47.1,29.61,NE,41,2.0,2.0,98,0.00,,,0.16,Wunderground v.1.15,2013-03-16 14:05:00,
2013-03-16 10:15:00,49.5,49.0,29.62,ENE,77,2.0,2.0,98,0.00,,,0.16,Wunderground v.1.15,2013-03-16 14:15:00,
2013-03-16 10:20:00,50.4,49.0,29.61,NNE,32,2.0,2.0,95,0.00,,,0.16,Wunderground v.1.15,2013-03-16 14:20:00,
2013-03-16 10:25:00,51.3,49.9,29.61,ENE,60,1.0,1.0,95,0.00,,,0.16,Wunderground v.1.15,2013-03-16 14:25:00,
2013-03-16 10:35:00,54.3,52.6,29.61,ENE,77,1.0,2.0,94,0.00,,,0.16,Wunderground v.1.15,2013-03-16 14:35:00,
2013-03-16 10:40:00,-999.9,-99.9,29.61,SSW,207,1.0,4.0,255,0.00,,,0.16,Wunderground v.1.15,2013-03-16 14:40:00,
2013-03-16 10:50:00,-999.9,-99.9,29.61,SE,132,4.0,5.0,255,0.00,,,0.16,Wunderground v.1.15,2013-03-16 14:50:00,
2013-03-16 11:00:00,-999.9,-99.9,29.61,SE,136,4.0,4.0,255,0.00,,,0.16,Wunderground v.1.15,2013-03-16 15:00:00,
2013-03-16 11:05:00,65.0,55.4,29.61,South,181,4.0,5.0,71,0.00,,,0.16,Wunderground v.1.15,2013-03-16 15:05:00,
2013-03-16 11:15:00,65.9,54.2,29.62,ESE,111,5.0,5.0,66,0.00,,,0.16,Wunderground v.1.15,2013-03-16 15:15:00,
2013-03-16 11:25:00,65.3,53.2,29.62,SSW,200,4.0,7.0,65,0.00,,,0.16,Wunderground v.1.15,2013-03-16 15:25:00,
2013-03-16 11:30:00,65.5,53.4,29.63,ESE,113,4.0,4.0,65,0.00,,,0.16,Wunderground v.1.15,2013-03-16 15:30:00,
2013-03-16 11:40:00,66.2,54.1,29.63,South,174,4.0,4.0,65,0.00,,,0.16,Wunderground v.1.15,2013-03-16 15:40:00,
2013-03-16 11:50:00,66.0,53.5,29.64,SSE,148,4.0,4.0,64,0.00,,,0.16,Wunderground v.1.15,2013-03-16 15:50:00,
2013-03-16 12:00:00,66.4,53.4,29.64,SE,143,4.0,4.0,63,0.00,,,0.16,Wunderground v.1.15,2013-03-16 16:00:00,
2013-03-16 12:10:00,66.8,52.9,29.65,SE,141,4.0,4.0,61,0.00,,,0.16,Wunderground v.1.15,2013-03-16 16:10:00,
2013-03-16 12:20:00,66.0,53.5,29.65,SSW,194,3.0,3.0,64,0.00,,,0.16,Wunderground v.1.15,2013-03-16 16:20:00,
2013-03-16 12:25:00,65.7,52.8,29.66,ESE,105,3.0,3.0,63,0.00,,,0.16,Wunderground v.1.15,2013-03-16 16:25:00,
2013-03-16 12:35:00,65.7,54.0,29.67,ENE,72,3.0,4.0,66,0.00,,,0.16,Wunderground v.1.15,2013-03-16 16:35:00,
2013-03-16 12:40:00,66.0,53.5,29.66,SE,124,3.0,4.0,64,0.00,,,0.16,Wunderground v.1.15,2013-03-16 16:40:00,
2013-03-16 12:45:00,66.3,54.6,29.66,East,98,3.0,4.0,66,0.00,,,0.16,Wunderground v.1.15,2013-03-16 16:45:00,
2013-03-16 12:50:00,66.3,53.8,29.67,SE,131,4.0,4.0,64,0.00,,,0.16,Wunderground v.1.15,2013-03-16 16:50:00,
2013-03-16 13:00:00,66.5,53.1,29.67,ESE,121,4.0,5.0,62,0.00,,,0.16,Wunderground v.1.15,2013-03-16 17:00:00,
2013-03-16 13:05:00,66.5,53.1,29.68,East,99,4.0,5.0,62,0.00,,,0.16,Wunderground v.1.15,2013-03-16 17:05:00,
2013-03-16 13:15:00,66.5,53.1,29.69,ESE,117,4.0,5.0,62,0.00,,,0.16,Wunderground v.1.15,2013-03-16 17:15:00,
2013-03-16 13:20:00,65.9,51.6,29.69,East,83,3.0,9.0,60,0.00,,,0.16,Wunderground v.1.15,2013-03-16 17:20:00,
2013-03-16 13:30:00,64.9,52.4,29.70,ESE,123,5.0,5.0,64,0.00,,,0.16,Wunderground v.1.15,2013-03-16 17:30:00,
2013-03-16 13:45:00,65.2,52.7,29.71,ESE,104,3.0,3.0,64,0.00,,,0.16,Wunderground v.1.15,2013-03-16 17:45:00,
2013-03-16 13:55:00,64.1,50.8,29.71,South,186,4.0,8.0,62,0.00,,,0.16,Wunderground v.1.15,2013-03-16 17:55:00,
2013-03-16 14:05:00,63.9,50.6,29.72,SSE,149,4.0,4.0,62,0.00,,,0.16,Wunderground v.1.15,2013-03-16 18:05:00,
2013-03-16 14:15:00,63.6,49.5,29.73,ESE,103,3.0,5.0,60,0.00,,,0.16,Wunderground v.1.15,2013-03-16 18:15:00,
2013-03-16 14:20:00,63.6,50.3,29.72,SE,131,3.0,4.0,62,0.00,,,0.16,Wunderground v.1.15,2013-03-16 18:20:00,
2013-03-16 14:30:00,63.8,50.5,29.73,ESE,123,3.0,3.0,62,0.00,,,0.16,Wunderground v.1.15,2013-03-16 18:30:00,
2013-03-16 14:40:00,64.1,49.9,29.73,ESE,110,3.0,4.0,60,0.00,,,0.16,Wunderground v.1.15,2013-03-16 18:40:00,
2013-03-16 14:50:00,64.4,49.8,29.74,NNE,23,3.0,3.0,59,0.00,,,0.16,Wunderground v.1.15,2013-03-16 18:50:00,
2013-03-16 15:00:00,65.1,50.0,29.74,South,183,4.0,4.0,58,0.00,,,0.16,Wunderground v.1.15,2013-03-16 19:00:00,
2013-03-16 15:05:00,64.9,50.2,29.75,ENE,70,4.0,5.0,59,0.00,,,0.16,Wunderground v.1.15,2013-03-16 19:05:00,
2013-03-16 15:15:00,63.1,48.1,29.75,East,100,4.0,5.0,58,0.00,,,0.16,Wunderground v.1.15,2013-03-16 19:15:00,
2013-03-16 15:20:00,62.2,48.1,29.75,East,98,4.0,4.0,60,0.00,,,0.16,Wunderground v.1.15,2013-03-16 19:20:00,
2013-03-16 15:30:00,61.9,49.2,29.76,ENE,75,2.0,3.0,63,0.00,,,0.16,Wunderground v.1.15,2013-03-16 19:30:00,
2013-03-16 15:35:00,61.1,48.4,29.76,East,87,3.0,5.0,63,0.00,,,0.16,Wunderground v.1.15,2013-03-16 19:35:00,
2013-03-16 15:45:00,61.8,49.1,29.76,SE,131,3.0,6.0,63,0.00,,,0.16,Wunderground v.1.15,2013-03-16 19:45:00,
2013-03-16 15:55:00,60.9,47.8,29.76,ENE,65,4.0,4.0,62,0.00,,,0.16,Wunderground v.1.15,2013-03-16 19:55:00,
2013-03-16 16:00:00,60.6,47.1,29.77,East,101,3.0,3.0,61,0.00,,,0.16,Wunderground v.1.15,2013-03-16 20:00:00,
2013-03-16 16:10:00,59.3,47.1,29.78,SE,138,3.0,3.0,64,0.00,,,0.16,Wunderground v.1.15,2013-03-16 20:10:00,
2013-03-16 16:20:00,58.7,46.1,29.78,ESE,105,3.0,4.0,63,0.00,,,0.16,Wunderground v.1.15,2013-03-16 20:20:00,
2013-03-16 16:30:00,57.7,46.4,29.78,ESE,110,4.0,4.0,66,0.00,,,0.16,Wunderground v.1.15,2013-03-16 20:30:00,
2013-03-16 16:35:00,57.8,46.5,29.79,East,91,3.0,5.0,66,0.00,,,0.16,Wunderground v.1.15,2013-03-16 20:35:00,
2013-03-16 16:45:00,57.8,46.5,29.79,ESE,114,3.0,5.0,66,0.00,,,0.16,Wunderground v.1.15,2013-03-16 20:45:00,
2013-03-16 16:50:00,57.6,45.5,29.80,ENE,63,4.0,4.0,64,0.00,,,0.16,Wunderground v.1.15,2013-03-16 20:50:00,
2013-03-16 17:00:00,57.0,45.7,29.80,SE,143,2.0,2.0,66,0.00,,,0.16,Wunderground v.1.15,2013-03-16 21:00:00,
2013-03-16 17:10:00,56.2,45.4,29.81,ESE,118,3.0,5.0,67,0.00,,,0.16,Wunderground v.1.15,2013-03-16 21:10:00,
2013-03-16 17:20:00,55.7,44.5,29.82,ESE,109,4.0,6.0,66,0.00,,,0.16,Wunderground v.1.15,2013-03-16 21:20:00,
2013-03-16 17:25:00,55.5,44.7,29.82,SE,132,3.0,6.0,67,0.00,,,0.16,Wunderground v.1.15,2013-03-16 21:25:00,
2013-03-16 17:35:00,54.6,44.6,29.83,ENE,72,3.0,6.0,69,0.00,,,0.16,Wunderground v.1.15,2013-03-16 21:35:00,
2013-03-16 17:45:00,53.7,44.5,29.84,ESE,112,3.0,3.0,71,0.00,,,0.16,Wunderground v.1.15,2013-03-16 21:45:00,
2013-03-16 17:55:00,53.0,43.8,29.84,ESE,108,2.0,4.0,71,0.00,,,0.16,Wunderground v.1.15,2013-03-16 21:55:00,
2013-03-16 18:05:00,52.1,43.0,29.86,SSW,210,3.0,3.0,71,0.00,,,0.16,Wunderground v.1.15,2013-03-16 22:05:00,
2013-03-16 18:10:00,51.8,43.4,29.86,East,99,3.0,3.0,73,0.00,,,0.16,Wunderground v.1.15,2013-03-16 22:10:00,
2013-03-16 18:20:00,51.2,42.8,29.86,SE,136,1.0,1.0,73,0.00,,,0.16,Wunderground v.1.15,2013-03-16 22:20:00,
2013-03-16 18:25:00,50.9,42.6,29.86,ESE,122,1.0,1.0,73,0.00,,,0.16,Wunderground v.1.15,2013-03-16 22:25:00,
2013-03-16 18:30:00,50.6,41.9,29.87,ENE,68,2.0,2.0,72,0.00,,,0.16,Wunderground v.1.15,2013-03-16 22:30:00,
2013-03-16 18:40:00,50.3,42.0,29.88,East,90,2.0,2.0,73,0.00,,,0.16,Wunderground v.1.15,2013-03-16 22:40:00,
2013-03-16 18:50:00,50.1,41.4,29.89,East,101,1.0,1.0,72,0.00,,,0.16,Wunderground v.1.15,2013-03-16 22:50:00,
2013-03-16 19:00:00,49.9,41.2,29.89,ENE,72,2.0,2.0,72,0.00,,,0.16,Wunderground v.1.15,2013-03-16 23:00:00,
2013-03-16 19:05:00,49.7,41.7,29.88,ENE,65,2.0,2.0,74,0.00,,,0.16,Wunderground v.1.15,2013-03-16 23:05:00,
2013-03-16 19:10:00,49.3,41.4,29.88,SW,217,2.0,3.0,74,0.00,,,0.16,Wunderground v.1.15,2013-03-16 23:10:00,
2013-03-16 19:20:00,48.0,40.8,29.89,ENE,59,3.0,3.0,76,0.00,,,0.16,Wunderground v.1.15,2013-03-16 23:20:00,
2013-03-16 19:30:00,47.1,40.6,29.90,East,94,2.0,3.0,78,0.00,,,0.16,Wunderground v.1.15,2013-03-16 23:30:00,
2013-03-16 19:35:00,46.6,40.1,29.90,East,83,3.0,5.0,78,0.00,,,0.16,Wunderground v.1.15,2013-03-16 23:35:00,
2013-03-16 19:40:00,46.2,40.0,29.90,ENE,60,3.0,3.0,79,0.00,,,0.16,Wunderground v.1.15,2013-03-16 23:40:00,
2013-03-16 19:45:00,46.0,40.2,29.90,South,170,2.0,3.0,80,0.00,,,0.16,Wunderground v.1.15,2013-03-16 23:45:00,
2013-03-16 19:55:00,45.5,39.7,29.91,NNE,18,1.0,1.0,80,0.00,,,0.16,Wunderground v.1.15,2013-03-16 23:55:00,
2013-03-16 20:05:00,45.1,39.6,29.91,ENE,58,1.0,2.0,81,0.00,,,0.16,Wunderground v.1.15,2013-03-17 00:05:00,
2013-03-16 20:15:00,44.7,39.2,29.91,NE,34,2.0,3.0,81,0.00,,,0.16,Wunderground v.1.15,2013-03-17 00:15:00,
2013-03-16 20:20:00,44.3,39.2,29.91,NE,51,2.0,2.0,82,0.00,,,0.16,Wunderground v.1.15,2013-03-17 00:20:00,
2013-03-16 20:30:00,43.7,38.3,29.91,SSE,148,2.0,2.0,81,0.00,,,0.16,Wunderground v.1.15,2013-03-17 00:30:00,
2013-03-16 20:35:00,43.6,38.5,29.91,NE,47,3.0,3.0,82,0.00,,,0.16,Wunderground v.1.15,2013-03-17 00:35:00,
2013-03-16 20:45:00,43.4,38.0,29.91,NE,48,1.0,2.0,81,0.00,,,0.16,Wunderground v.1.15,2013-03-17 00:45:00,
2013-03-16 20:55:00,43.2,37.8,29.92,NE,44,2.0,5.0,81,0.00,,,0.16,Wunderground v.1.15,2013-03-17 00:55:00,
2013-03-16 21:00:00,43.0,37.6,29.92,NE,44,2.0,3.0,81,0.00,,,0.16,Wunderground v.1.15,2013-03-17 01:00:00,
2013-03-16 21:10:00,42.8,37.4,29.92,ENE,75,2.0,2.0,81,0.00,,,0.16,Wunderground v.1.15,2013-03-17 01:10:00,
2013-03-16 21:15:00,42.8,37.4,29.93,NE,43,1.0,2.0,81,0.00,,,0.16,Wunderground v.1.15,2013-03-17 01:15:00,
2013-03-16 21:25:00,42.7,37.3,29.94,NE,55,1.0,1.0,81,0.00,,,0.16,Wunderground v.1.15,2013-03-17 01:25:00,
2013-03-16 21:35:00,42.5,36.8,29.95,NE,51,1.0,2.0,80,0.00,,,0.16,Wunderground v.1.15,2013-03-17 01:35:00,
2013-03-16 21:45:00,42.3,36.3,29.96,ENE,61,2.0,2.0,79,0.00,,,0.16,Wunderground v.1.15,2013-03-17 01:45:00,
2013-03-16 21:55:00,42.0,36.0,29.97,NE,36,2.0,2.0,79,0.00,,,0.16,Wunderground v.1.15,2013-03-17 01:55:00,
2013-03-16 22:05:00,41.7,35.7,29.98,NE,47,1.0,4.0,79,0.00,,,0.16,Wunderground v.1.15,2013-03-17 02:05:00,
2013-03-16 22:15:00,41.4,35.4,29.98,ESE,120,1.0,1.0,79,0.00,,,0.16,Wunderground v.1.15,2013-03-17 02:15:00,
2013-03-16 22:25:00,41.3,35.6,29.98,NE,44,1.0,2.0,80,0.00,,,0.16,Wunderground v.1.15,2013-03-17 02:25:00,
2013-03-16 22:35:00,41.1,35.4,29.99,ENE,58,1.0,2.0,80,0.00,,,0.16,Wunderground v.1.15,2013-03-17 02:35:00,
2013-03-16 22:45:00,40.9,34.9,29.99,NE,53,1.0,1.0,79,0.00,,,0.16,Wunderground v.1.15,2013-03-17 02:45:00,
2013-03-16 22:50:00,40.9,34.9,29.99,East,101,1.0,1.0,79,0.00,,,0.16,Wunderground v.1.15,2013-03-17 02:50:00,
2013-03-16 23:00:00,40.7,35.0,30.00,NE,56,1.0,1.0,80,0.00,,,0.16,Wunderground v.1.15,2013-03-17 03:00:00,
2013-03-16 23:10:00,40.6,34.9,29.99,East,83,0.0,0.0,80,0.00,,,0.16,Wunderground v.1.15,2013-03-17 03:10:00,
2013-03-16 23:20:00,40.6,34.9,30.00,NE,44,0.0,0.0,80,0.00,,,0.16,Wunderground v.1.15,2013-03-17 03:20:00,
2013-03-16 23:25:00,40.6,34.9,30.00,East,91,0.0,2.0,80,0.00,,,0.16,Wunderground v.1.15,2013-03-17 03:25:00,
2013-03-16 23:30:00,40.6,34.9,30.00,NE,47,1.0,2.0,80,0.00,,,0.16,Wunderground v.1.15,2013-03-17 03:30:00,
2013-03-16 23:40:00,40.5,34.8,30.00,ENE,77,1.0,1.0,80,0.00,,,0.16,Wunderground v.1.15,2013-03-17 03:40:00,
2013-03-16 23:45:00,40.4,34.7,30.00,SSE,167,0.0,1.0,80,0.00,,,0.16,Wunderground v.1.15,2013-03-17 03:45:00,
2013-03-16 23:55:00,40.3,34.6,30.00,NE,51,1.0,2.0,80,0.00,,,0.16,Wunderground v.1.15,2013-03-17 03:55:00,